Theta_e
315 314 315 315 315 318 327 331 334 339 335 331 332 329 329 331 330 327 326 325 325 329 329 333 335 334 340 343 344 343 341 345 346 345 344 339 335 337 342 347 348 345 345 346 346 347 347 347 347 347 346 345 344 340 335 334 335 332 328 324 328 336 339 339 339 339 339 339 340 340 339 340 340 340 341 341 342 340 335 336 339 340 340 340 338 331 327 324 320 322 324 329 331 328 327 329 332
313 314 313 314 317 322 331 329 331 336 332 328 328 328 329 328 327 325 325 325 324 330 336 335 338 340 338 341 343 343 342 341 341 341 340 337 337 339 343 347 346 345 346 346 347 348 348 348 347 346 345 344 342 339 335 336 336 331 325 325 333 338 339 338 339 339 340 340 340 341 340 339 339 339 340 341 341 337 335 338 340 340 341 340 336 329 327 323 317 320 324 327 326 323 324 326 331
312 313 312 316 319 323 329 327 328 327 325 325 323 326 326 324 324 324 324 324 325 331 339 339 342 343 339 344 344 345 343 338 338 337 336 337 339 340 342 345 344 346 346 346 347 348 348 347 346 345 344 343 341 337 335 338 336 328 326 331 337 338 339 338 339 341 341 341 341 341 340 339 339 339 339 339 338 337 338 340 341 341 341 340 335 329 328 323 318 322 323 324 322 322 323 324 329
312 312 314 316 320 324 328 328 330 325 321 322 321 324 323 323 322 323 327 329 332 335 340 341 343 341 342 347 342 343 344 340 339 337 337 337 338 340 339 340 340 342 346 346 346 346 346 346 345 343 343 342 340 336 337 338 332 329 332 336 338 339 340 340 340 341 341 341 341 340 340 339 339 339 339 339 338 339 341 341 341 340 339 338 334 329 328 322 318 322 321 320 323 323 324 324 326
312 313 315 316 320 324 325 325 328 324 322 324 321 323 323 322 320 325 334 334 335 338 339 340 343 341 341 344 341 344 345 341 340 338 338 337 338 340 339 339 339 341 345 345 345 346 345 345 343 342 341 340 338 337 338 334 329 332 336 339 340 340 340 340 341 341 340 340 339 339 339 339 339 339 339 339 339 341 341 341 340 339 339 337 333 330 329 321 315 319 318 319 324 325 325 326 327
314 316 316 317 319 320 321 321 321 320 321 324 321 321 322 320 319 328 337 336 336 339 339 341 342 342 342 341 339 342 342 341 341 339 339 338 338 341 343 343 341 342 342 342 344 345 344 343 342 340 340 339 337 337 336 332 329 333 337 340 340 341 341 340 341 341 340 339 338 337 338 339 339 339 339 340 340 340 340 340 340 339 339 336 333 330 329 321 314 315 315 319 326 327 327 327 328
315 318 320 319 320 320 322 321 319 319 319 320 319 319 319 319 324 330 336 336 338 339 340 342 340 343 344 341 340 340 339 340 340 339 339 338 340 344 344 343 342 340 338 340 343 344 343 342 341 340 339 338 338 337 334 332 331 333 338 340 340 341 341 341 341 341 339 338 337 336 337 338 338 339 340 339 340 340 340 340 339 338 336 334 332 330 330 323 314 315 317 321 327 328 328 328 327
314 318 320 319 321 321 322 321 319 320 319 319 318 319 318 321 331 335 337 338 340 341 340 341 339 344 344 340 343 340 338 339 338 338 339 339 343 344 344 343 344 343 340 341 342 342 342 341 340 339 339 339 338 337 335 332 331 334 338 340 340 340 340 340 340 341 339 337 337 336 336 337 338 339 339 339 339 339 339 339 337 335 334 332 332 331 330 326 315 315 321 325 328 327 327 327 327
314 318 320 318 320 319 318 319 318 318 319 319 318 320 320 326 335 336 338 340 341 342 341 340 339 343 342 339 342 339 338 339 338 340 341 343 344 345 345 344 344 344 342 342 341 338 339 340 339 338 338 339 338 336 334 333 333 335 338 340 340 340 339 339 339 339 338 337 336 336 336 336 338 338 338 338 338 338 338 337 335 333 332 332 333 331 330 329 319 314 322 327 327 327 327 327 327
316 318 321 320 319 316 315 316 316 317 318 318 318 318 322 331 337 337 339 341 341 341 340 338 338 341 340 340 341 338 338 339 340 342 342 344 344 345 344 344 343 340 339 339 339 339 341 341 339 337 336 336 336 334 332 333 335 336 337 339 340 339 339 338 338 338 338 337 335 335 335 336 337 338 338 337 337 337 338 336 333 331 331 332 333 332 331 330 324 315 319 327 327 327 327 327 327
319 320 320 319 317 314 314 315 315 316 317 316 318 324 331 335 337 338 339 341 339 341 340 339 339 339 339 340 340 338 338 339 340 341 341 342 342 342 342 341 338 337 338 336 336 341 342 341 339 338 337 337 336 334 333 334 337 337 338 339 340 339 338 338 338 338 338 337 336 335 335 336 337 338 338 337 336 336 336 334 331 330 330 332 333 332 332 331 328 318 316 324 328 327 327 327 327
320 321 320 317 317 316 316 315 315 318 317 318 326 333 338 338 340 340 340 341 339 341 341 340 339 338 339 341 339 338 338 339 340 340 340 340 340 339 335 333 330 334 341 340 338 341 341 340 339 338 337 336 335 334 334 335 337 337 338 338 338 338 337 337 337 338 338 338 337 336 335 336 336 337 337 336 335 334 334 333 330 329 330 331 331 331 332 332 331 324 316 320 327 327 327 327 326
319 321 318 318 320 318 317 316 317 320 318 327 338 338 339 340 342 341 341 342 341 342 341 339 337 337 339 340 338 337 338 338 339 339 338 338 338 335 329 326 328 332 337 338 339 339 339 339 336 335 334 333 333 333 334 336 337 337 337 337 337 336 336 335 335 336 337 337 337 337 336 336 336 336 335 335 335 334 334 333 331 329 329 330 329 329 331 332 331 328 320 317 324 327 327 326 326
319 321 318 319 320 318 318 317 318 317 320 336 342 338 340 340 340 339 341 343 341 340 339 337 335 337 338 339 339 339 339 337 337 337 335 334 333 330 326 327 327 326 325 330 335 336 338 338 336 335 333 333 333 334 335 336 337 337 337 337 337 336 336 335 334 334 334 335 335 336 336 335 335 335 334 334 334 334 334 333 332 331 329 329 329 328 329 330 331 330 324 318 321 325 326 326 326
318 320 318 319 318 318 318 317 318 314 323 342 341 338 341 339 338 338 339 342 341 337 337 337 336 339 338 339 340 339 338 336 336 334 331 329 328 327 327 327 323 321 320 322 328 334 338 338 337 337 337 336 335 336 336 336 336 337 337 336 336 336 337 336 336 335 334 334 335 335 335 335 334 333 334 334 333 334 334 334 333 332 331 330 330 329 328 328 331 331 326 320 322 325 325 326 326
317 318 318 318 316 316 316 317 318 317 328 342 340 338 340 338 337 337 336 338 338 336 337 338 337 339 337 336 338 337 336 336 334 332 329 327 326 327 328 327 323 321 320 319 324 333 338 339 338 337 337 337 336 336 336 336 336 336 337 336 336 337 337 337 337 337 337 336 336 335 335 336 335 334 334 334 334 334 335 334 334 333 332 331 330 330 329 327 329 331 328 322 323 326 326 327 326
316 316 317 317 316 315 315 318 316 321 335 344 341 339 340 339 337 336 335 334 336 336 336 337 336 337 337 336 337 336 336 335 333 332 330 328 328 329 330 327 323 323 321 320 326 334 340 341 340 338 336 335 335 334 335 335 334 335 336 336 336 337 337 337 337 337 337 338 337 336 336 336 335 335 334 335 335 334 335 335 334 334 333 333 332 331 330 328 328 331 330 323 324 327 326 326 325
314 317 317 315 317 315 315 318 314 322 338 343 342 341 341 341 339 336 336 336 336 336 337 336 336 337 337 337 336 336 336 335 335 334 332 330 329 330 331 328 326 324 322 325 332 337 340 340 341 339 336 336 335 334 333 333 332 332 333 334 334 335 335 336 337 338 337 336 335 336 336 336 336 335 334 334 335 335 336 336 335 335 335 334 333 332 331 329 328 330 330 325 324 326 326 326 326
314 317 317 315 318 316 315 316 313 325 336 338 341 341 341 342 340 337 338 339 337 338 338 337 337 338 337 336 336 336 336 336 336 336 335 333 332 331 331 330 329 327 324 329 336 337 338 339 340 339 337 335 335 334 332 332 331 330 331 332 333 335 335 334 335 337 335 334 333 334 335 336 337 337 336 336 336 336 336 337 337 336 335 335 333 333 331 331 330 329 330 326 325 326 326 326 327
314 314 314 316 318 315 315 317 320 330 337 339 340 340 341 340 338 337 338 339 338 339 339 339 340 340 338 337 336 336 336 336 336 336 336 335 334 333 332 332 331 331 330 331 334 335 335 336 337 338 336 334 334 332 331 332 331 329 330 331 332 335 336 335 335 335 332 332 332 332 334 334 334 335 337 338 339 338 336 337 337 337 336 335 334 333 331 331 330 329 330 328 326 327 327 327 328
313 313 314 315 315 315 314 320 329 334 336 339 340 341 341 339 337 337 338 339 340 339 338 338 339 339 338 337 336 337 336 336 337 336 337 336 336 335 335 334 333 333 333 332 333 334 333 333 335 336 335 334 335 333 333 336 335 333 333 333 335 336 337 337 338 337 333 333 333 331 333 333 333 333 334 336 337 337 336 336 337 337 337 336 335 333 331 331 330 328 328 329 328 327 328 328 328
313 313 314 314 314 314 313 321 332 335 336 339 340 341 340 338 338 337 337 341 341 338 335 335 336 336 337 336 336 336 336 336 336 337 337 337 336 336 335 335 334 333 333 334 335 336 335 334 334 335 335 336 337 335 336 339 339 338 337 338 339 338 337 337 338 338 335 333 333 332 332 332 332 331 332 333 334 335 336 336 336 335 335 336 335 332 331 330 330 328 327 328 329 329 329 331 331
312 312 314 313 313 313 316 327 334 335 338 340 340 339 338 338 337 335 336 338 335 332 332 333 334 336 336 336 336 336 336 335 336 337 337 337 337 337 336 335 335 335 335 336 336 337 337 336 334 334 335 335 336 335 336 338 340 340 339 339 339 340 339 337 336 336 335 333 333 333 332 331 331 332 332 331 331 333 335 335 336 335 334 335 335 332 330 330 330 329 328 327 329 330 332 334 335
311 312 313 314 314 312 319 331 335 337 339 340 339 338 337 339 338 335 335 334 330 330 331 333 333 334 335 335 335 336 337 336 336 336 337 337 337 337 337 337 337 337 337 337 337 338 337 337 335 335 335 334 334 334 334 334 335 337 336 336 337 337 337 336 335 334 334 333 333 333 332 331 331 332 331 330 330 332 334 334 334 335 336 336 336 335 332 332 332 332 332 331 330 330 333 335 336
312 311 313 315 314 315 325 334 336 338 338 338 338 338 338 337 336 335 336 332 329 330 331 332 333 333 334 334 335 336 337 337 337 336 337 337 338 339 339 339 338 338 338 338 337 338 338 337 337 337 337 336 336 335 335 334 332 332 333 334 336 336 336 336 336 335 334 334 334 334 333 332 332 331 331 331 331 331 333 333 333 333 335 336 337 337 336 335 335 335 335 334 334 334 334 335 335
312 313 314 315 314 319 330 335 335 337 337 338 339 338 337 334 335 336 334 330 328 329 331 332 333 333 333 333 334 335 337 337 337 336 337 338 338 339 340 339 339 338 338 338 338 339 339 338 338 338 338 338 338 337 337 335 334 334 335 336 336 336 336 337 337 336 336 336 335 334 334 334 333 333 331 331 332 331 331 332 332 332 334 335 336 337 337 337 336 335 335 335 335 335 335 336 336
312 313 314 315 314 317 328 334 335 336 336 337 339 338 337 333 336 338 333 329 329 330 332 332 332 333 333 332 334 334 335 335 336 336 336 337 338 339 339 339 338 338 338 338 338 338 338 338 338 337 337 337 337 337 337 336 336 337 336 336 337 337 337 337 337 337 336 336 336 336 335 335 334 334 334 334 334 333 332 330 331 332 333 335 335 335 335 336 337 336 335 335 335 335 335 336 336
313 314 314 316 315 316 327 334 333 334 334 334 336 337 337 335 336 337 333 330 331 332 333 332 332 333 332 332 332 332 332 333 333 334 334 335 336 337 338 337 336 335 335 335 335 335 335 335 335 334 334 334 335 336 337 337 338 338 338 338 338 339 339 338 339 338 337 336 336 337 336 335 335 335 336 336 336 336 334 332 331 331 331 333 335 335 334 335 336 336 336 336 336 335 336 336 335
313 315 315 316 316 316 322 328 330 333 333 331 333 337 339 339 337 334 333 332 332 333 333 332 332 332 332 332 332 331 331 331 330 330 331 332 333 334 334 334 333 332 332 332 331 332 332 332 332 332 332 332 332 333 335 335 336 336 336 338 339 339 339 339 338 339 339 338 337 337 336 336 336 336 336 336 336 336 336 334 332 331 330 331 334 335 335 335 335 335 335 336 336 336 336 336 336
314 314 316 316 317 316 314 320 329 331 328 327 333 342 340 337 336 334 333 333 332 332 332 332 332 331 330 331 331 330 329 328 328 328 329 329 330 331 331 331 331 330 330 330 330 330 330 330 330 330 331 330 331 331 332 332 332 333 333 336 338 338 338 337 337 337 338 338 338 338 339 338 338 338 337 337 337 336 336 336 334 334 333 331 331 332 334 336 336 335 334 335 335 335 334 335 335
315 314 317 316 314 315 314 316 322 325 326 327 332 340 338 332 333 335 333 332 332 333 332 332 332 330 329 329 329 329 328 326 327 328 328 328 328 329 328 328 329 329 329 328 329 328 328 329 329 329 329 329 330 329 329 329 329 331 333 335 335 336 336 337 338 338 337 338 338 338 339 339 338 337 337 338 338 337 336 335 335 334 334 333 331 331 331 334 336 335 335 334 334 334 334 334 335
317 315 315 316 314 315 316 314 317 322 325 326 333 338 337 332 332 334 333 332 333 333 332 332 331 330 328 327 328 329 328 326 325 326 326 327 328 328 327 327 326 326 326 325 325 325 325 326 327 327 326 327 327 327 327 326 326 328 330 332 332 333 334 335 336 337 337 338 338 339 339 339 338 337 338 338 338 338 337 336 335 334 334 334 333 332 332 333 335 336 335 335 334 334 334 334 335
323 320 315 315 316 315 316 315 314 317 321 325 333 338 335 333 334 333 333 333 332 333 332 331 330 329 327 327 327 328 327 326 325 325 325 326 326 326 326 326 326 325 324 323 321 319 318 320 323 324 324 324 325 325 325 325 324 323 325 326 327 329 329 329 329 330 331 331 333 336 337 339 339 339 338 339 339 338 338 337 337 337 335 334 334 333 332 332 334 336 335 335 335 335 334 333 333
325 322 315 315 316 314 314 316 314 316 325 330 332 335 334 335 335 333 333 333 332 333 332 330 329 328 327 326 326 326 327 327 326 325 324 324 324 324 324 325 325 325 325 323 319 315 314 317 321 323 323 323 323 322 323 323 322 321 321 323 323 323 324 325 325 324 324 325 325 328 331 333 336 339 339 339 339 338 338 338 338 338 337 336 335 333 332 332 333 334 335 334 335 334 334 333 332
322 319 314 316 316 315 315 316 314 317 326 331 331 333 334 333 334 333 332 332 332 332 331 330 329 327 327 326 325 325 325 326 326 324 324 323 323 323 324 324 324 324 324 324 321 318 316 316 320 322 322 321 319 318 320 322 319 318 319 319 318 318 319 320 321 322 322 322 323 323 324 325 328 334 339 338 338 338 338 338 339 338 338 338 337 336 334 333 333 333 333 334 334 334 334 334 333
321 318 317 319 315 316 317 316 316 315 320 328 332 333 333 333 334 333 332 332 332 332 332 330 328 328 327 326 325 325 325 325 325 324 324 324 324 324 324 324 324 324 324 324 323 323 322 320 320 321 320 318 314 311 313 315 313 313 314 315 316 317 318 318 318 319 319 321 322 322 323 323 323 328 334 336 336 336 335 336 337 337 338 338 338 337 335 334 334 334 334 334 334 333 334 334 334
317 317 319 318 315 316 317 317 317 315 316 322 330 332 332 332 332 332 331 331 332 332 332 330 328 327 326 325 325 324 325 325 324 323 323 323 323 324 324 324 324 324 324 324 323 324 324 323 322 323 322 320 317 313 312 316 316 315 316 317 319 319 319 319 319 319 319 321 322 323 324 325 325 326 330 333 332 332 334 334 336 337 337 338 337 337 335 336 336 335 336 336 336 335 335 334 334
317 318 317 315 316 316 316 317 317 317 315 317 327 334 332 331 330 330 331 330 331 332 331 330 328 326 326 325 325 325 325 325 324 323 323 323 322 322 322 323 324 324 324 323 322 322 323 323 322 323 323 323 322 318 317 319 319 319 319 319 319 319 320 321 321 321 322 322 322 323 324 324 325 326 328 330 330 331 333 335 335 335 336 337 337 336 337 337 335 335 336 335 335 336 336 335 335
319 318 316 316 317 317 318 320 316 316 317 315 322 329 330 330 329 328 330 330 330 330 330 329 327 326 325 325 325 325 325 326 325 324 323 323 322 320 321 323 323 323 323 322 321 321 321 321 321 321 322 322 323 319 318 320 319 318 319 319 320 321 321 322 322 322 322 322 322 322 323 324 324 325 326 328 329 330 332 332 332 333 333 335 336 336 336 336 335 336 335 334 334 334 335 336 336
318 318 318 318 318 316 318 321 317 316 317 315 318 322 323 327 329 328 328 328 328 328 328 328 327 326 325 324 324 324 325 325 325 324 322 322 323 322 321 322 322 322 322 321 321 320 319 319 319 319 319 321 321 318 318 320 319 318 319 320 320 321 321 321 321 321 321 321 321 322 323 324 324 324 325 327 328 328 328 328 329 329 331 332 333 334 334 335 335 335 335 335 334 333 334 335 336
316 318 319 319 319 316 316 320 317 315 315 315 320 322 319 323 328 328 328 326 327 327 328 327 326 326 326 325 324 324 324 323 324 325 323 321 322 322 322 321 321 321 320 320 320 319 318 317 317 317 317 319 320 318 318 319 319 319 320 320 320 320 321 321 321 322 323 323 322 322 322 323 323 323 325 326 326 326 326 327 327 328 329 332 333 334 334 335 335 335 335 335 333 332 333 333 333
316 318 320 318 318 316 316 317 315 313 313 317 321 320 323 331 328 325 326 327 327 327 327 326 326 327 326 325 324 324 324 323 322 323 322 320 321 321 321 320 320 320 319 319 319 318 317 316 316 316 317 319 319 317 317 317 318 320 320 320 320 321 322 322 322 323 324 324 324 324 323 323 323 322 323 324 325 326 326 327 326 327 329 332 333 333 334 334 335 335 334 334 333 332 332 331 330
317 322 322 316 316 316 315 314 314 315 315 319 319 318 327 334 328 324 325 325 326 327 326 325 325 326 325 324 324 324 323 322 321 321 319 319 320 320 319 319 319 319 319 318 318 318 317 316 316 316 316 317 317 317 318 317 317 320 320 319 320 322 322 322 323 323 324 324 325 325 325 324 324 324 324 325 325 326 327 327 326 326 328 329 330 330 331 332 333 333 333 333 332 331 331 330 330
320 326 321 317 318 315 315 314 315 319 318 322 327 326 328 329 330 331 326 321 323 326 326 325 325 325 325 324 323 322 322 321 321 321 320 318 319 320 319 319 319 319 319 318 318 318 317 316 316 316 316 315 315 317 317 317 317 319 319 318 319 322 322 322 322 323 323 324 324 325 325 325 326 326 326 326 326 327 327 326 326 326 327 327 328 329 330 331 331 332 332 332 331 331 332 331 330
324 326 318 317 317 314 316 313 314 321 317 319 328 325 322 330 340 334 324 322 323 326 326 324 325 325 323 324 322 321 321 319 320 320 319 318 318 319 319 319 319 319 319 318 318 318 317 316 316 315 314 314 315 316 316 317 318 319 319 318 319 321 322 321 322 323 323 323 324 324 325 325 326 326 327 327 327 327 326 327 327 327 327 327 328 329 330 331 331 331 331 331 330 331 332 332 331
321 319 317 321 321 321 322 317 320 327 320 318 325 323 319 331 341 328 319 324 324 324 326 324 325 324 323 323 321 320 319 318 319 318 318 318 318 318 318 318 319 318 318 317 317 317 316 315 315 314 314 314 314 315 316 318 318 319 319 319 320 321 321 321 322 322 323 323 323 324 324 325 325 326 327 327 327 326 326 327 327 328 328 328 328 329 329 330 330 330 330 329 329 330 331 331 331
317 316 319 325 330 334 336 335 335 330 324 325 329 327 322 326 337 329 322 329 326 323 325 325 325 324 322 322 320 319 319 319 319 318 317 317 318 318 318 318 318 318 318 317 317 316 315 315 314 314 313 313 314 315 317 318 318 319 319 319 320 321 321 321 321 322 322 323 323 323 324 324 325 326 326 327 327 326 327 327 327 328 327 328 328 328 329 329 329 329 329 328 328 328 329 329 329
316 319 322 324 329 335 340 342 336 325 326 333 332 328 322 323 336 336 330 332 326 321 323 325 325 323 322 321 320 319 319 319 319 318 318 317 317 318 318 317 318 318 317 316 316 316 315 315 314 313 312 312 314 315 316 317 317 318 319 319 320 320 321 321 321 322 322 323 323 323 324 324 324 325 326 326 326 327 327 327 328 327 327 328 328 328 328 328 328 328 328 328 328 328 327 328 328
319 321 327 328 329 333 336 335 329 324 328 331 330 327 323 325 332 333 331 331 324 320 322 323 323 323 321 320 319 319 319 319 319 319 319 318 317 317 318 317 317 318 317 316 316 316 316 315 313 312 312 312 314 315 316 316 317 318 319 319 319 320 320 320 321 322 322 323 323 323 324 323 323 325 326 326 326 327 327 327 327 327 328 328 328 328 328 327 328 328 328 328 328 327 327 327 328
318 319 327 331 332 331 332 331 327 328 333 333 329 326 325 326 329 329 328 328 326 321 321 322 323 322 320 320 319 318 319 319 318 319 319 318 317 317 317 318 318 317 317 317 316 315 316 315 312 311 311 312 314 315 315 315 317 319 319 318 319 319 319 320 321 322 322 322 323 323 323 323 323 325 326 326 326 327 327 327 327 327 327 328 328 328 328 328 328 328 328 328 328 328 328 328 328
320 321 323 327 332 332 330 331 330 331 334 332 325 324 328 328 327 331 326 322 323 321 319 322 323 322 320 319 319 319 319 319 318 319 318 317 317 317 317 318 318 317 316 317 315 315 315 314 312 311 311 312 313 314 315 316 317 319 318 318 319 319 319 320 320 321 322 322 322 322 323 323 323 324 325 326 326 327 327 326 326 325 325 326 327 327 327 328 328 328 328 328 328 328 328 328 329
321 321 321 321 328 336 332 329 335 333 328 329 325 325 333 330 326 332 326 318 321 322 321 323 323 323 321 320 320 319 319 319 318 318 318 316 316 317 317 317 317 316 316 316 315 314 315 313 311 310 310 312 312 313 316 317 318 318 318 318 319 319 319 320 320 321 321 321 322 322 323 323 323 324 324 325 325 326 326 325 324 323 323 324 325 325 326 327 327 328 328 328 328 328 328 328 328
324 319 322 321 321 331 331 326 333 332 325 329 327 325 333 331 325 333 330 321 322 324 323 323 323 323 321 320 320 319 319 319 318 319 317 316 316 316 317 317 317 316 316 316 315 314 315 313 310 310 311 312 313 314 316 316 316 316 316 317 318 318 319 320 320 321 321 321 322 323 323 323 323 323 322 322 322 323 323 323 323 322 322 322 323 324 325 325 325 326 327 328 328 328 328 328 327
324 319 324 325 320 330 335 328 330 329 326 332 329 324 329 330 327 332 329 323 323 326 325 323 323 323 321 321 320 318 319 318 318 319 317 316 316 316 317 316 316 316 316 316 314 314 314 311 310 310 310 312 314 315 315 314 314 315 315 317 318 318 319 319 320 320 321 322 322 322 322 321 321 320 320 320 320 321 321 321 321 321 320 320 320 322 323 324 324 325 326 326 327 327 327 327 327
322 321 325 323 320 330 333 326 330 329 325 330 332 325 321 327 335 332 323 324 326 326 327 324 323 323 321 321 319 318 319 318 319 319 317 316 316 316 316 316 316 316 315 315 314 314 313 310 310 311 310 311 314 315 315 314 314 315 316 317 318 318 319 319 320 320 321 322 321 321 320 319 319 319 319 319 319 319 318 318 318 318 318 318 318 319 321 322 323 324 324 325 326 326 326 326 326
321 322 327 328 328 331 327 322 328 330 325 327 333 332 326 330 340 335 324 327 328 327 328 325 322 323 321 320 319 318 319 319 318 318 317 317 316 316 316 316 316 316 315 315 314 314 312 310 310 311 310 311 313 315 314 314 314 314 316 317 318 318 318 318 320 320 321 321 320 320 319 318 317 317 317 317 316 316 315 315 315 315 316 316 316 317 319 321 321 322 322 323 324 325 325 325 324
323 323 325 332 332 327 325 324 326 329 330 330 330 334 338 337 333 329 327 327 325 326 329 326 323 323 321 320 319 318 319 318 318 318 317 316 316 316 316 316 316 315 315 314 314 312 310 310 311 311 310 310 312 314 314 314 314 314 316 317 317 318 317 318 320 320 320 320 318 317 316 316 314 313 314 314 312 311 311 311 311 311 311 311 313 316 318 320 320 320 320 322 324 324 324 322 320
330 329 329 335 335 329 327 329 331 332 333 333 328 328 341 342 327 323 329 328 325 325 326 326 325 323 322 321 319 319 319 318 318 318 316 315 315 315 315 316 316 315 314 313 312 311 309 310 311 311 311 310 312 314 314 314 314 314 315 316 317 317 317 317 319 319 319 318 317 316 314 313 311 309 309 308 307 306 307 308 308 308 308 308 310 314 317 318 317 317 319 321 323 322 320 318 317
Wind_Speed
13 15 14 16 15 12 7 2 2 3 2 1 3 2 5 6 4 5 7 8 1 5 6 8 11 12 12 8 10 13 13 10 4 2 1 3 19 32 22 18 25 23 24 23 23 22 20 20 18 19 20 19 17 15 14 16 16 13 12 12 15 16 15 15 15 15 16 16 17 17 17 16 16 15 15 15 14 14 15 15 14 15 15 15 13 13 12 12 11 12 13 13 12 13 15 17 17
14 15 14 14 11 5 2 2 3 3 4 3 4 3 6 4 3 7 10 10 2 9 9 9 16 16 12 11 8 13 14 7 5 6 4 5 21 22 23 24 25 21 23 22 23 22 21 20 19 20 20 19 17 15 15 16 15 12 12 14 16 15 14 15 15 15 15 15 16 16 16 16 15 15 14 14 13 14 14 13 14 15 15 14 13 13 13 12 12 12 13 13 14 16 18 18 17
14 15 14 12 6 2 1 3 2 1 4 3 5 4 4 5 7 8 10 8 4 10 12 11 15 11 8 12 11 9 7 5 6 4 3 13 18 14 20 26 24 19 19 21 21 21 21 21 21 21 20 19 17 16 16 15 14 13 14 16 15 15 15 15 15 15 15 15 16 15 15 15 15 14 14 13 13 13 13 12 14 15 14 13 13 14 14 13 12 12 13 14 16 19 19 19 17
13 13 13 8 4 2 3 2 2 3 1 4 4 6 4 6 9 4 6 9 12 12 9 8 11 8 11 14 7 4 5 5 10 7 3 8 13 21 25 25 22 17 17 19 19 20 20 20 20 20 20 18 17 16 16 14 13 14 15 15 15 15 14 15 14 14 15 16 16 15 15 15 14 14 13 13 12 12 12 12 13 15 14 13 13 14 14 13 12 11 13 15 18 19 19 18 17
11 12 9 3 3 1 2 1 1 3 4 4 3 8 8 9 6 3 7 11 13 14 10 7 7 5 13 12 4 3 4 2 9 11 4 5 17 23 24 26 26 21 18 19 19 20 19 19 20 19 19 18 17 16 15 14 14 14 14 14 14 14 14 14 14 14 16 17 15 15 14 14 14 14 13 12 11 11 11 12 13 14 13 12 13 14 14 13 12 11 13 17 19 19 18 18 17
11 11 5 2 2 1 2 1 1 3 6 5 4 9 10 8 5 6 12 15 13 14 13 9 9 8 9 8 5 7 7 1 3 6 4 8 16 17 22 28 28 26 22 20 18 19 18 19 19 19 18 18 17 15 15 14 14 13 12 13 13 13 13 13 15 16 17 16 16 16 15 14 14 13 13 12 11 11 12 12 13 13 12 12 12 13 13 14 12 12 15 18 19 19 18 17 15
11 8 2 2 2 1 3 2 4 5 5 5 4 9 12 7 6 6 12 14 9 10 12 10 13 13 8 4 5 10 13 5 2 4 9 14 18 21 26 28 29 29 25 21 17 17 18 18 18 18 18 17 16 15 14 14 13 12 12 13 12 12 12 12 14 16 16 16 16 16 16 15 14 13 12 12 11 11 11 12 12 11 11 11 11 12 13 14 12 13 17 20 19 18 17 15 13
8 2 1 3 2 2 2 3 5 4 4 6 5 11 13 4 9 9 11 12 6 7 11 9 14 17 9 5 6 9 13 7 7 11 17 20 24 27 28 28 29 29 28 25 19 17 16 16 17 17 17 16 15 14 13 13 12 12 12 12 12 12 11 12 14 14 15 16 16 16 16 15 14 13 12 12 12 11 11 11 11 10 10 11 11 11 12 14 13 13 17 20 19 17 16 14 12
4 2 2 2 1 2 1 4 5 3 6 9 8 14 11 4 12 14 14 13 9 10 13 7 12 16 8 10 9 5 9 8 10 13 18 22 26 29 28 29 30 28 29 25 20 19 15 15 16 15 15 15 14 13 13 12 12 12 12 12 12 12 12 13 14 14 14 15 15 15 15 14 13 13 12 12 12 11 11 10 9 9 9 10 10 11 12 14 14 13 16 19 19 17 15 13 12
3 1 0 1 1 3 3 4 5 4 7 8 9 14 6 11 15 18 18 15 12 13 15 12 17 16 10 10 7 3 5 7 12 17 20 25 27 29 29 29 29 28 26 24 22 19 16 14 15 15 14 13 13 12 11 11 12 12 12 11 11 11 12 13 13 13 13 14 14 15 14 14 13 12 13 13 12 11 10 9 9 9 9 9 10 10 11 12 13 12 14 17 17 16 15 14 13
3 2 1 1 2 3 4 4 6 6 8 8 7 8 4 14 15 14 17 15 10 12 11 9 15 16 13 8 4 4 4 9 14 20 24 27 29 30 30 29 30 26 23 23 22 19 16 14 14 13 12 12 11 11 10 10 11 11 11 11 11 10 11 11 12 12 13 13 13 14 14 14 13 13 13 13 13 12 10 9 8 8 8 9 9 10 10 11 12 12 12 15 16 15 15 14 13
1 3 3 1 1 3 4 4 7 8 9 8 6 8 9 11 14 11 14 11 6 11 6 4 9 10 12 6 3 4 6 10 15 22 25 29 31 31 32 32 30 24 20 21 21 18 14 13 13 12 10 9 9 9 8 8 9 9 10 10 9 9 10 10 11 11 12 12 12 12 13 13 13 12 12 11 12 12 11 9 8 8 8 8 9 9 10 10 11 11 9 12 14 15 15 13 12
1 1 4 0 3 3 4 4 6 6 6 6 7 7 8 12 13 10 14 13 9 11 10 5 11 10 10 4 4 5 9 14 18 24 27 30 32 33 36 35 30 24 21 18 18 16 12 12 12 11 9 9 8 8 8 8 8 8 9 9 8 8 8 9 9 10 10 10 10 10 10 11 11 11 11 11 11 11 11 10 8 7 7 7 7 8 9 10 10 10 9 9 12 14 13 13 11
2 1 4 1 2 2 4 4 4 4 4 6 7 6 9 11 8 7 13 15 12 7 7 8 10 13 11 6 4 4 9 13 14 19 25 32 33 34 36 35 34 30 24 17 15 14 10 10 11 10 9 9 10 10 9 9 8 8 8 8 8 7 6 6 7 7 8 8 8 8 9 9 9 10 10 10 11 10 10 9 9 7 6 6 6 7 8 8 10 10 9 8 11 14 13 13 12
2 1 3 1 3 3 4 3 3 5 4 8 8 8 15 11 4 8 10 12 9 5 6 8 5 8 7 7 6 6 9 8 8 13 22 30 32 33 33 33 36 35 30 20 15 12 9 9 9 10 10 10 11 11 10 9 8 8 7 8 8 7 6 5 5 5 5 6 6 6 7 8 8 9 9 10 10 10 10 9 9 8 7 6 5 5 6 7 8 10 9 8 12 15 14 13 12
2 2 2 0 3 5 3 1 4 6 4 8 3 7 21 12 7 13 10 8 10 7 7 8 7 6 8 8 11 11 10 7 10 13 17 24 28 28 25 27 32 33 32 25 17 13 9 8 8 9 10 10 11 11 11 9 8 7 7 7 7 6 6 5 4 3 3 3 4 4 5 6 6 7 8 9 9 9 9 9 9 9 8 6 5 5 5 6 7 9 9 8 13 15 14 13 11
2 3 1 1 4 6 2 1 3 4 5 8 6 8 20 10 11 15 11 15 17 13 13 10 10 10 9 10 13 14 11 10 13 12 11 16 20 20 19 24 29 28 27 24 19 14 10 8 7 8 9 10 10 11 11 10 9 7 7 7 6 5 5 5 4 4 3 3 3 4 4 4 5 6 7 8 8 8 8 8 9 8 8 6 6 5 5 5 6 8 9 8 11 14 13 11 10
3 2 2 2 5 4 1 0 2 5 6 7 5 9 19 13 8 10 13 20 19 18 16 13 14 12 11 14 14 13 11 10 8 5 5 7 11 15 16 21 27 26 25 22 18 14 10 9 7 7 8 9 9 10 10 10 10 8 8 7 6 5 4 4 4 4 3 2 3 3 3 3 4 5 5 6 6 7 6 7 7 7 7 6 5 5 4 4 5 7 8 9 11 13 12 10 10
3 2 2 4 5 3 4 3 0 6 10 10 7 7 14 14 9 9 14 16 16 19 14 12 15 11 10 11 11 10 9 8 5 5 6 6 7 10 11 14 20 24 25 21 17 14 11 10 9 8 8 8 8 8 9 10 10 10 9 8 7 5 4 4 4 3 2 2 3 3 2 3 4 5 5 4 3 5 6 7 7 6 6 6 6 5 5 4 4 5 8 10 11 12 12 11 10
2 3 1 6 5 4 5 4 5 8 11 12 11 10 14 13 8 12 18 17 16 17 11 11 13 10 8 7 7 8 7 7 7 7 8 8 8 8 8 8 10 15 20 21 18 15 12 11 10 9 8 7 7 8 9 9 9 9 9 9 8 7 6 5 4 2 2 3 3 2 2 4 5 5 6 4 5 7 7 7 7 6 6 6 6 7 6 6 5 5 7 10 12 12 11 10 9
2 4 5 8 5 5 4 7 12 14 14 13 10 12 15 11 8 12 19 17 12 11 10 11 14 13 11 8 6 7 8 9 10 9 10 11 10 8 8 8 9 12 17 20 17 14 13 12 12 11 10 9 9 10 10 9 9 9 9 9 9 9 7 7 5 3 3 4 4 3 3 4 5 5 6 7 8 8 7 7 8 7 7 7 7 8 7 6 6 6 7 10 12 12 11 9 8
3 4 8 9 4 3 1 8 12 15 16 14 13 14 12 9 9 7 14 15 7 8 10 12 14 12 11 9 7 8 9 9 9 10 10 11 10 11 12 13 14 15 17 18 16 14 13 12 13 12 12 10 9 10 10 10 9 9 9 8 8 8 8 8 7 6 5 6 6 5 4 5 6 6 7 7 8 7 7 8 7 8 8 7 7 8 8 7 6 6 6 8 12 12 11 9 8
4 5 7 8 6 3 3 9 11 13 15 13 14 14 13 15 12 8 12 14 7 7 8 9 10 11 11 9 8 7 7 8 8 9 10 10 10 11 13 13 14 15 15 14 14 13 11 11 11 10 10 9 9 9 10 10 9 8 8 7 8 8 8 9 8 8 7 7 7 6 6 6 7 8 8 6 6 7 7 7 7 8 8 6 7 7 7 8 7 7 6 7 10 12 11 9 8
7 7 7 6 6 5 7 11 10 13 16 14 16 15 14 19 12 5 12 11 7 6 6 7 9 12 12 8 6 6 7 8 9 10 10 9 9 10 11 12 12 13 13 11 11 10 9 9 8 7 7 7 8 9 9 9 8 9 8 7 7 8 9 10 10 10 9 9 8 8 8 8 9 10 8 7 6 7 7 6 6 8 8 6 6 6 6 7 8 8 8 7 8 10 11 10 10
8 8 6 2 1 5 11 12 12 16 16 14 19 19 15 19 14 8 11 9 6 7 5 8 9 9 9 8 7 6 7 9 11 11 10 10 10 11 11 10 11 11 11 10 9 8 8 7 7 6 5 6 7 7 7 7 7 8 8 7 7 8 9 10 11 11 10 10 10 10 9 9 10 10 9 8 7 7 7 8 8 8 9 8 7 8 7 8 9 9 9 9 9 10 10 10 10
4 6 3 3 4 11 15 12 14 14 11 17 23 21 17 17 13 9 7 8 7 7 7 8 8 9 7 7 6 5 6 9 10 9 9 11 11 11 11 10 10 9 9 8 7 8 7 6 6 5 5 5 5 5 5 4 5 4 4 5 5 6 8 10 11 11 11 11 11 11 10 10 11 11 11 11 10 9 9 9 9 9 10 10 10 11 9 10 11 11 11 11 11 12 12 12 11
3 4 1 6 7 12 16 12 14 12 9 18 22 16 13 8 7 6 4 7 9 9 10 7 8 9 7 7 5 5 7 8 10 10 10 12 11 11 11 10 9 9 8 8 7 7 6 6 5 5 4 4 4 3 2 3 3 1 2 3 2 3 5 6 7 9 11 11 11 11 11 11 11 12 13 13 13 12 11 11 11 11 11 12 12 14 13 12 13 13 13 13 13 14 14 13 14
2 2 4 10 10 9 18 15 12 11 7 15 22 16 11 6 6 9 8 8 10 12 12 8 8 8 7 7 5 5 7 8 10 10 10 10 10 10 10 10 10 10 10 10 9 8 8 7 6 6 5 5 4 3 3 2 1 2 3 4 3 3 4 4 5 7 8 9 10 11 11 11 11 12 14 15 15 14 12 12 13 13 13 13 13 14 14 15 15 16 16 15 15 16 16 16 16
2 5 5 8 10 5 13 13 12 13 10 13 19 14 9 8 9 10 10 10 12 12 11 8 8 7 6 6 3 4 5 7 9 9 10 10 10 10 11 10 10 11 11 10 10 9 9 8 7 7 7 7 6 6 6 5 5 4 5 5 5 5 5 7 8 8 9 9 9 10 11 11 12 13 14 15 16 16 15 14 15 15 15 15 13 12 13 14 16 17 18 18 17 17 17 17 18
3 5 5 4 7 4 3 6 13 13 6 5 10 7 5 7 8 11 9 12 14 12 10 8 8 7 6 4 2 3 5 7 8 9 10 11 11 11 11 10 10 10 10 9 9 8 7 7 6 6 6 6 6 5 4 5 5 5 5 5 6 6 7 8 10 10 11 11 10 11 11 12 12 13 13 14 15 15 16 16 17 17 16 16 15 15 14 13 14 15 17 19 20 19 18 18 18
3 3 3 3 4 3 9 1 11 8 2 5 14 7 4 2 6 11 9 12 16 13 10 9 8 8 6 4 4 4 5 8 9 9 10 10 11 10 10 10 9 8 8 8 7 6 5 5 5 4 4 4 4 4 4 4 5 5 4 5 6 7 8 9 11 11 12 12 13 13 13 13 13 13 12 12 13 13 15 17 17 17 16 16 16 17 17 15 13 14 15 17 20 20 20 19 20
3 2 2 3 3 2 7 3 8 9 2 10 16 6 6 8 10 12 10 10 15 14 11 9 8 8 7 6 6 5 4 7 10 10 10 10 10 9 9 8 7 6 6 5 4 3 3 3 3 2 2 2 3 4 4 5 6 6 5 6 7 7 7 8 10 11 13 13 15 16 16 15 14 14 13 13 13 13 13 14 15 15 15 16 17 16 16 16 15 15 14 14 18 20 19 18 19
4 3 1 3 2 2 5 4 4 9 5 5 12 7 5 8 11 11 9 9 13 12 11 10 8 8 8 6 6 5 5 5 7 9 10 10 10 9 7 6 5 4 3 3 3 2 2 2 2 2 3 4 4 5 5 6 7 7 6 6 7 7 7 7 8 9 10 11 12 14 17 18 18 18 16 15 14 13 12 13 13 13 13 14 16 17 17 16 15 16 15 13 15 17 17 16 16
4 2 2 2 2 2 3 4 6 9 11 7 11 10 6 9 12 11 9 10 12 11 10 9 8 8 7 7 7 6 5 4 4 8 10 9 9 8 6 5 5 3 2 2 1 2 2 3 3 3 4 5 6 7 7 8 8 8 8 7 7 7 7 7 8 9 9 10 10 11 12 15 18 20 21 19 17 14 13 14 13 12 13 13 14 17 19 19 17 16 17 15 15 15 16 16 16
2 1 2 1 2 3 2 2 5 8 13 10 10 8 8 11 12 11 9 10 11 10 9 8 7 7 6 6 7 6 6 5 6 9 10 9 8 7 5 4 4 3 2 1 1 2 3 4 4 5 6 7 8 9 9 9 10 10 10 10 9 9 9 10 10 11 12 12 12 11 11 13 14 16 20 20 17 15 14 16 16 14 13 14 14 16 18 19 19 18 18 18 18 17 17 17 18
6 3 4 3 2 1 2 2 2 6 11 8 10 10 10 12 11 11 9 8 10 9 8 7 6 6 5 5 6 7 6 5 8 11 11 9 7 6 4 3 2 2 2 2 2 3 4 5 5 6 6 8 9 10 10 10 11 12 12 12 12 12 13 13 13 13 14 14 14 13 12 12 12 12 14 13 12 12 13 14 16 15 14 15 16 16 16 17 18 19 19 18 19 19 19 19 19
6 4 4 4 4 2 2 2 4 4 8 4 10 13 12 12 11 11 9 8 9 10 10 8 8 8 7 7 6 7 6 6 10 13 12 9 7 5 3 2 1 2 2 3 2 2 3 4 5 6 7 8 10 12 12 12 13 14 15 16 16 17 16 16 15 15 15 15 15 14 12 11 10 10 11 11 12 12 12 13 14 13 13 15 16 16 15 16 17 18 19 18 18 18 19 20 20
7 5 4 2 3 2 2 0 4 3 6 2 8 12 11 11 11 10 10 10 10 12 13 11 10 10 8 8 9 7 6 6 9 10 11 10 7 4 2 1 1 1 1 2 2 2 2 2 3 4 5 6 8 10 11 12 13 13 13 15 16 17 16 16 16 16 15 14 13 12 11 10 10 9 8 9 11 12 12 11 12 13 13 14 16 16 16 17 17 17 18 19 19 18 18 19 18
6 4 5 2 2 1 3 2 2 3 5 4 7 10 9 11 12 12 14 14 13 14 15 14 14 13 11 11 11 9 8 7 7 8 10 11 9 6 5 3 3 2 1 1 2 3 2 2 2 3 3 4 6 8 9 9 11 11 11 12 13 15 14 14 15 15 15 14 12 11 11 10 10 9 8 7 8 10 10 10 11 12 12 12 14 16 16 17 16 15 17 19 20 20 20 19 18
5 4 4 2 3 1 1 4 2 2 2 6 7 6 5 9 11 12 14 14 12 13 15 15 15 14 14 13 11 11 12 10 8 7 9 12 11 10 9 7 5 3 2 2 2 3 3 3 3 3 3 4 6 7 8 8 10 10 10 11 12 13 13 14 14 13 14 14 13 11 11 11 11 9 8 7 6 8 9 10 12 12 13 13 13 15 15 16 16 16 16 17 19 19 20 21 21
3 4 4 3 3 4 4 3 2 2 2 4 7 4 2 7 9 10 10 8 7 10 12 12 11 10 11 12 11 11 12 11 11 9 9 12 14 12 11 9 7 5 4 3 3 3 3 4 4 4 4 5 7 8 9 10 10 11 11 13 14 14 15 15 16 16 16 16 15 14 13 13 12 10 9 7 7 9 10 11 11 11 12 14 14 14 15 15 16 16 16 16 17 17 18 19 21
2 4 5 6 6 5 5 3 2 3 3 2 5 4 2 2 8 11 9 6 7 8 11 12 10 9 10 12 11 10 10 10 11 11 11 13 15 14 12 10 9 7 6 4 3 3 3 4 4 4 5 6 7 8 10 11 12 12 13 15 15 15 15 16 17 17 16 16 14 13 12 12 12 11 10 8 7 9 10 11 11 10 10 12 13 13 14 15 15 15 15 16 17 17 18 18 22
2 5 6 7 6 6 7 5 3 2 3 4 3 5 3 4 3 9 10 9 10 10 12 13 11 11 12 12 11 10 10 8 8 9 11 13 15 15 13 11 9 8 7 6 5 4 3 2 3 4 5 6 7 8 9 10 11 11 12 13 13 12 14 14 14 14 14 14 13 12 10 8 8 7 8 7 7 8 9 10 10 10 9 9 10 11 12 13 14 14 14 15 16 14 14 16 22
3 5 5 6 5 6 9 9 6 4 2 3 4 5 3 2 4 6 8 10 10 13 14 13 11 12 13 12 12 12 11 9 8 8 9 13 15 16 15 13 11 9 8 7 6 5 3 1 2 3 4 5 6 6 7 9 10 10 10 12 11 10 12 13 12 12 13 14 14 13 11 7 6 6 5 6 6 7 8 9 10 9 9 9 10 10 11 12 13 14 14 15 15 13 13 16 22
5 7 3 2 2 3 6 9 5 2 3 2 4 3 3 3 5 3 4 7 9 13 16 14 13 13 12 12 12 12 11 10 10 10 10 14 17 18 17 15 13 11 9 7 6 5 3 1 2 3 3 5 5 6 7 7 7 8 9 11 10 10 12 12 12 12 13 15 15 15 13 10 9 8 6 5 5 6 7 7 8 9 8 8 9 9 9 10 12 14 14 14 14 13 13 16 19
5 3 3 4 4 3 4 6 3 3 5 2 5 1 2 3 5 2 2 4 7 10 12 13 14 13 12 12 12 12 10 9 9 11 14 16 19 20 17 15 14 12 9 6 5 4 2 2 3 3 4 4 5 7 7 4 4 7 8 9 10 10 12 12 13 14 15 15 15 15 14 13 12 11 9 6 4 4 5 6 6 7 7 7 7 6 6 7 9 10 11 12 12 12 14 15 16
1 5 5 5 6 5 4 3 4 5 2 4 6 3 4 1 5 3 4 5 8 9 8 10 11 12 12 12 13 12 10 9 8 9 13 17 19 19 15 14 13 12 9 5 4 3 1 2 3 4 5 5 5 7 5 2 4 6 7 8 9 10 12 13 14 14 14 14 14 15 15 14 14 13 10 8 6 4 4 5 6 6 6 6 5 5 5 6 7 8 8 9 11 13 14 15 14
4 5 4 3 5 5 4 5 4 3 2 5 4 2 5 1 5 4 5 6 8 13 11 11 12 12 12 11 12 12 10 10 8 8 10 13 15 15 14 14 13 12 10 6 5 3 1 2 4 4 5 4 5 7 5 3 5 6 7 8 9 10 11 12 13 13 13 12 13 14 14 15 15 12 10 10 9 7 6 6 7 6 5 5 6 6 6 6 7 7 7 7 9 10 11 11 11
5 4 5 4 3 4 3 3 2 0 4 5 3 2 1 3 6 6 7 7 6 12 14 14 15 14 13 12 12 11 9 9 9 8 8 10 13 15 16 16 14 13 10 7 6 4 2 3 4 4 5 4 5 8 7 4 5 5 7 9 9 10 10 11 12 12 12 12 12 13 14 15 14 11 11 13 12 10 9 10 10 10 8 8 8 9 10 9 9 9 8 7 6 7 8 9 9
3 0 3 4 2 3 1 3 2 1 4 5 3 1 1 3 5 7 8 8 7 10 14 16 16 16 15 14 14 11 10 10 9 9 8 10 14 18 19 18 16 14 10 8 6 4 4 4 4 4 5 5 5 9 8 4 3 5 8 9 9 10 11 11 11 11 11 11 11 12 13 13 11 10 11 13 11 10 11 13 14 14 12 11 12 13 13 13 13 12 11 10 8 7 7 7 8
2 2 5 4 3 4 2 3 2 3 3 4 3 1 2 2 4 7 7 6 5 7 11 12 12 14 14 13 13 12 10 9 8 9 10 13 18 20 21 20 19 16 12 11 8 5 6 5 3 3 4 4 6 9 6 2 2 4 6 8 7 9 10 10 10 10 11 11 11 10 10 11 9 9 10 11 11 10 11 12 13 15 14 13 13 13 13 13 13 13 13 13 11 10 9 8 7
3 1 5 1 3 5 2 2 4 3 1 2 2 2 3 3 4 6 1 3 4 6 9 10 8 10 12 12 12 11 10 9 9 9 10 14 19 21 22 23 22 19 17 15 11 9 10 6 2 2 3 4 6 8 3 3 3 3 5 6 6 7 9 9 10 10 10 10 10 9 10 9 8 9 10 10 10 9 10 11 11 13 13 12 12 12 13 12 13 13 14 13 13 13 12 11 9
2 2 1 3 3 6 3 1 1 3 2 3 1 2 4 2 3 6 5 6 5 7 9 10 9 10 12 12 11 11 11 10 11 10 11 15 19 21 23 25 25 23 21 18 15 13 12 8 4 1 1 3 6 4 2 3 3 1 2 4 5 7 8 9 10 10 10 9 9 9 10 9 9 10 11 11 11 11 11 11 11 12 12 11 10 10 12 13 13 14 14 14 15 15 14 13 12
3 1 3 1 3 4 4 1 3 4 0 4 2 3 4 1 1 5 5 5 5 5 9 10 10 11 12 12 12 13 13 12 12 12 13 17 20 22 24 26 27 25 22 20 17 16 13 10 7 5 2 2 4 1 3 3 4 3 2 3 6 6 7 9 10 9 9 9 10 11 12 12 11 11 11 11 12 12 11 11 11 12 12 12 11 10 10 11 14 15 15 15 15 16 16 15 15
4 4 2 3 3 1 1 1 0 1 1 3 4 3 2 2 3 3 0 5 7 6 8 10 11 11 11 12 12 13 13 11 11 11 11 15 19 22 24 27 28 26 23 20 18 17 14 10 9 7 4 2 2 3 2 3 4 3 3 5 7 7 7 9 9 9 9 10 11 12 12 12 11 10 11 12 12 12 12 12 12 13 13 13 14 12 10 10 14 16 16 17 17 17 18 18 18
2 1 3 3 3 3 1 1 2 2 1 2 3 3 1 4 5 4 6 7 9 8 7 9 12 12 11 12 12 13 13 11 12 11 10 14 20 23 26 29 28 26 23 20 19 18 14 11 11 9 6 3 2 2 2 3 3 3 4 6 8 8 8 10 9 9 10 10 11 11 10 10 10 11 12 13 14 13 13 13 14 14 15 15 16 15 13 13 16 18 19 19 19 19 19 20 22
2 1 1 2 1 1 0 1 1 3 3 2 1 2 4 5 4 6 8 7 9 11 9 9 10 10 10 12 13 13 12 12 12 12 11 15 20 23 27 29 27 25 23 21 21 19 13 12 13 10 7 4 3 3 3 3 3 2 4 6 8 8 8 9 9 9 10 10 11 12 13 13 14 15 15 15 15 15 14 14 15 16 17 17 17 17 17 17 18 21 21 21 21 20 21 22 24
5 4 3 3 2 2 2 2 3 1 3 4 3 2 6 5 3 4 6 7 8 10 10 9 8 9 9 10 12 13 13 13 13 12 12 15 19 22 25 26 25 24 23 22 22 20 15 14 14 10 6 5 5 5 5 4 4 4 4 6 7 7 8 9 10 10 10 11 13 14 15 16 17 18 18 18 18 17 17 16 17 18 18 18 18 18 19 19 21 23 23 23 23 23 24 25 26
Wind_Direction
320 317 317 324 327 332 336 63 54 322 73 13 270 256 264 239 230 273 285 278 240 63 18 25 49 72 83 116 129 89 68 73 131 99 132 262 22 16 19 100 118 110 115 117 120 121 121 124 123 120 114 111 109 108 110 106 101 99 103 105 101 98 100 102 102 101 100 100 101 102 102 102 101 101 102 102 101 101 100 98 96 95 93 90 84 72 64 63 72 84 93 97 99 105 108 110 109
321 313 319 330 337 355 308 75 72 328 36 336 276 213 262 278 263 266 264 268 242 96 78 53 59 62 83 113 106 74 57 53 120 124 169 56 55 36 33 82 105 104 113 115 117 117 117 118 114 113 109 107 105 104 106 103 101 101 104 105 103 105 107 106 106 104 103 103 104 103 103 104 103 103 103 103 102 102 99 97 96 95 92 88 79 68 65 64 74 89 98 103 105 108 110 112 109
320 314 325 339 353 62 351 38 88 14 38 297 277 242 269 303 267 267 282 304 38 93 87 57 50 28 28 54 38 63 66 31 44 99 133 46 66 81 71 86 92 90 102 106 109 110 112 111 110 109 105 104 104 106 106 104 103 104 105 106 109 112 111 110 110 107 106 106 106 104 105 106 107 107 106 105 103 101 98 96 95 93 91 86 76 67 63 63 79 94 103 111 115 116 116 117 114
320 318 326 349 22 31 49 53 148 132 172 250 271 265 263 263 258 279 340 33 75 87 78 64 57 20 39 47 15 57 61 26 20 35 74 43 102 114 101 103 101 93 92 98 103 104 107 106 106 104 102 103 106 109 108 106 105 107 110 112 115 115 114 114 113 112 111 109 108 106 107 110 110 109 107 105 101 99 95 91 91 91 88 83 73 67 61 63 84 98 109 119 121 122 121 120 119
323 327 324 37 79 345 83 94 140 140 214 211 236 276 265 249 266 80 65 58 84 96 97 107 100 73 66 50 2 43 2 334 20 40 84 95 115 113 104 111 113 107 97 98 99 102 104 103 103 101 102 104 107 110 108 107 108 111 114 117 118 117 117 116 116 116 116 115 113 112 112 113 112 110 107 104 100 98 93 90 89 89 86 81 74 68 61 64 89 106 116 126 126 124 123 121 121
332 345 341 113 132 228 102 285 278 234 236 197 217 271 265 275 326 95 87 62 60 81 91 98 116 121 88 55 48 42 356 341 33 41 108 116 116 110 103 107 109 107 101 98 97 102 104 103 104 102 105 106 110 111 109 110 111 114 118 121 121 119 119 119 120 121 121 121 120 119 119 118 115 111 108 104 101 96 92 92 91 91 88 84 77 70 63 65 91 115 124 130 129 127 124 122 121
343 357 13 68 343 37 100 230 240 252 248 202 225 270 273 323 29 84 87 80 52 50 75 94 116 103 72 63 70 36 17 47 109 111 125 120 116 107 105 107 106 107 105 102 103 105 105 104 103 103 106 108 110 111 113 115 115 119 123 125 122 120 118 121 125 126 127 126 125 124 122 121 118 114 110 106 101 95 94 96 96 96 94 90 81 74 68 67 90 119 130 133 132 130 126 123 119
355 8 342 68 358 0 96 250 246 238 258 249 250 267 277 11 76 71 70 91 72 42 72 96 102 83 56 56 76 42 32 64 111 115 120 119 118 112 110 110 106 108 110 111 114 109 105 105 103 105 106 107 111 113 116 118 121 125 127 127 125 123 121 124 128 129 130 129 129 126 125 123 121 118 114 110 105 100 100 102 102 100 96 92 83 78 74 70 87 119 134 136 136 133 128 124 117
9 119 337 69 56 346 319 275 279 248 264 275 269 267 273 82 94 89 80 83 86 67 65 74 88 91 91 70 75 46 40 85 117 108 113 117 116 111 108 107 105 107 110 113 114 108 105 107 107 107 107 111 114 116 119 119 126 130 131 131 129 128 126 129 132 134 134 132 130 128 127 125 124 123 120 116 111 109 108 109 107 103 98 93 85 80 77 73 83 114 138 142 140 135 130 126 114
13 112 64 105 56 323 288 274 282 266 265 275 277 279 258 121 105 104 102 98 104 91 83 75 76 98 108 76 75 25 42 114 118 104 109 112 108 106 103 101 102 103 107 109 106 104 104 106 106 107 110 114 117 119 121 122 127 132 136 136 133 132 130 132 134 136 137 135 135 134 134 133 134 134 130 125 119 116 116 117 112 106 101 96 89 80 77 74 78 103 137 147 144 137 133 127 111
19 325 99 83 14 287 268 267 280 283 289 301 314 325 76 116 105 107 108 109 113 105 118 89 77 95 89 70 68 31 81 123 115 107 108 108 105 104 103 100 100 99 102 104 104 105 105 104 102 105 108 112 118 120 122 125 127 131 137 138 136 136 135 135 135 137 139 142 146 147 146 144 144 143 137 132 128 125 123 123 118 112 108 103 94 81 77 73 74 89 127 150 148 141 136 128 112
51 321 68 70 257 237 247 260 284 290 305 334 17 33 63 84 84 89 86 86 82 79 65 73 117 108 78 70 68 64 100 113 112 110 110 111 108 106 107 103 99 95 93 97 102 103 106 108 106 107 111 116 121 121 125 128 126 130 136 140 142 143 143 141 138 140 144 150 155 156 154 150 148 147 142 139 136 136 136 133 126 121 115 110 97 82 77 74 71 76 107 148 154 147 141 131 117
150 229 82 193 226 216 260 263 279 302 332 18 48 49 69 69 74 83 79 63 39 64 33 50 134 105 86 97 71 102 115 111 112 111 113 112 110 111 112 108 103 98 91 93 97 100 107 112 115 118 122 126 125 123 126 129 131 132 135 139 142 145 146 144 143 147 151 152 156 159 157 153 151 149 148 148 146 148 146 140 134 130 123 114 100 85 78 75 74 70 85 135 157 154 146 139 127
189 190 110 255 271 231 252 261 293 3 15 40 36 27 60 57 72 85 85 74 32 48 54 55 105 93 104 130 87 130 131 120 115 118 120 116 117 118 118 117 116 114 109 105 99 103 116 118 120 120 123 125 124 126 127 131 133 133 134 137 139 142 141 141 147 152 156 154 156 161 160 157 154 154 156 155 154 156 154 149 142 139 135 124 109 94 86 82 82 78 80 117 152 156 151 146 136
216 183 110 240 301 288 243 236 353 45 51 55 45 53 65 36 56 65 52 82 43 8 77 43 42 91 133 151 129 163 157 140 118 126 129 124 125 123 123 124 123 124 126 125 116 120 131 126 122 120 124 123 123 126 126 127 128 131 135 141 145 146 144 151 160 161 162 158 158 163 165 166 161 161 163 161 162 161 160 161 154 148 149 142 131 116 105 99 94 91 91 117 147 154 154 150 144
191 115 75 34 276 273 262 206 44 64 95 96 109 78 73 35 36 61 19 80 75 17 55 32 8 92 136 136 134 155 155 132 110 119 126 125 125 123 125 124 123 126 130 133 134 139 140 130 127 129 130 125 127 128 126 126 127 134 137 143 147 144 147 157 166 173 181 168 162 169 178 179 173 173 170 168 169 165 165 169 164 159 162 161 157 146 128 117 107 101 100 123 147 154 155 152 151
78 83 86 320 262 254 294 16 56 92 122 119 151 100 92 73 55 75 47 68 78 53 55 49 45 79 105 109 123 138 134 122 117 113 114 121 125 126 126 124 123 125 128 134 139 144 141 136 133 134 136 133 135 133 133 132 132 141 143 143 141 141 147 153 167 179 203 202 185 194 199 198 193 190 182 179 178 173 176 176 172 170 172 175 177 172 151 131 118 109 108 130 152 157 157 155 153
81 104 170 238 252 247 290 315 112 116 112 109 129 111 111 113 100 105 70 65 75 72 64 63 65 68 83 103 122 135 139 145 145 140 148 151 139 131 129 129 129 130 133 136 141 146 145 148 148 145 144 140 139 137 140 138 140 146 145 144 142 149 155 162 181 180 195 209 198 207 220 232 230 217 202 196 192 185 188 189 184 179 179 188 193 188 173 148 127 116 118 137 155 160 160 156 153
134 162 149 235 239 238 265 281 179 131 120 104 92 88 102 110 122 116 88 81 87 87 81 84 87 81 85 104 126 141 153 163 173 166 167 172 148 133 133 136 135 137 140 141 145 149 152 161 166 165 155 144 141 144 148 146 147 147 145 148 148 158 177 191 199 190 209 231 216 217 228 256 262 254 241 226 226 217 203 199 201 196 194 200 206 204 194 173 146 128 128 144 157 162 162 159 159
188 165 167 247 232 245 279 9 66 112 108 92 85 79 84 93 103 102 101 97 92 98 108 112 110 112 110 110 115 123 126 118 114 115 119 126 127 131 136 136 136 138 141 144 148 152 158 166 173 176 167 155 157 164 166 161 158 156 154 157 161 171 196 216 218 215 248 255 255 265 256 276 284 275 266 249 244 242 220 206 209 212 213 216 219 218 210 195 175 155 143 154 162 167 168 166 169
203 158 201 239 212 242 287 73 93 100 96 93 94 84 79 79 85 106 113 104 93 105 120 127 127 131 134 130 114 114 112 98 93 92 94 100 107 114 116 117 125 135 140 145 150 153 157 164 172 176 176 177 182 181 178 178 177 175 172 172 177 184 202 222 233 241 249 249 265 287 271 279 285 279 276 260 250 247 233 222 219 215 218 226 230 227 222 216 202 184 162 163 169 171 169 171 178
245 214 219 234 197 226 307 102 113 110 109 109 100 86 83 75 58 75 105 106 124 134 131 134 131 133 135 135 136 133 119 103 92 91 91 93 99 105 108 115 123 134 142 146 149 152 156 163 170 175 182 187 189 189 187 189 189 187 187 188 194 199 209 225 235 243 244 244 255 274 273 271 275 280 280 271 269 266 249 239 237 229 225 232 241 239 231 228 227 220 198 177 177 180 179 184 199
233 260 241 238 210 214 84 109 120 115 112 107 101 99 102 91 63 29 77 102 142 139 131 131 125 127 127 129 136 130 114 104 95 91 93 98 103 106 111 119 125 134 140 142 145 148 151 156 164 175 185 190 194 199 200 201 200 198 198 201 210 215 226 240 247 253 259 257 256 267 278 272 274 285 279 268 277 276 257 250 257 251 243 243 251 250 240 236 237 236 232 211 195 198 206 220 236
211 246 258 242 210 193 114 116 119 109 106 105 108 106 100 97 90 50 79 101 125 111 109 109 110 117 120 123 116 108 104 98 91 89 94 96 99 106 113 118 123 129 129 132 139 140 143 148 156 168 184 200 207 215 218 220 218 214 218 222 224 227 240 253 258 263 268 269 266 267 275 273 276 283 274 265 277 273 254 254 265 261 257 254 250 251 247 244 241 239 243 241 224 217 225 237 252
213 239 263 286 230 114 107 116 113 107 109 111 106 99 94 101 106 98 100 113 112 105 101 94 95 95 101 104 98 99 101 95 91 90 92 93 97 104 108 113 120 123 124 131 136 136 141 145 150 159 173 186 198 211 219 227 225 225 236 241 242 244 254 264 268 271 272 274 273 271 275 276 278 279 271 269 281 280 263 259 263 263 263 261 254 251 249 251 251 250 249 250 248 246 247 250 259
237 252 280 16 45 97 110 117 110 108 114 109 102 102 111 116 108 88 107 129 121 107 92 87 92 86 84 93 90 84 92 96 95 93 95 101 107 105 103 113 121 120 123 129 130 132 139 147 156 161 166 172 179 189 196 208 215 222 238 240 245 253 261 267 271 275 277 278 277 274 274 276 280 279 274 272 276 282 278 267 261 262 262 262 260 257 253 252 254 256 254 255 255 259 262 262 267
265 263 7 48 48 106 118 115 111 108 104 106 104 106 115 124 109 103 154 150 129 111 99 100 100 98 100 100 89 76 85 92 97 103 103 108 116 112 111 121 122 117 120 123 124 128 135 145 152 150 149 156 162 166 172 193 202 220 257 252 249 263 269 266 273 279 277 277 277 275 274 277 280 278 275 274 274 277 278 269 261 263 262 260 262 263 261 256 253 254 255 257 258 261 265 267 269
277 348 43 30 26 105 123 123 127 111 101 107 100 89 81 67 86 128 166 154 129 116 113 119 111 111 113 105 99 93 97 103 108 111 111 118 125 124 124 126 122 118 117 118 119 118 119 122 118 109 98 93 96 82 60 63 45 342 316 310 310 300 297 303 309 308 297 284 276 277 279 281 282 280 276 275 275 276 274 266 259 263 266 263 264 267 267 266 261 256 254 256 257 259 263 265 266
45 51 60 18 19 94 126 129 138 119 133 130 98 76 63 80 116 144 157 138 124 117 120 127 119 118 111 106 115 115 121 122 120 117 119 128 133 134 131 129 127 122 118 115 115 110 103 100 92 85 80 78 77 64 50 43 26 359 339 329 325 316 316 325 329 328 321 306 290 286 286 287 287 285 283 280 280 277 273 266 259 262 266 263 261 264 269 271 268 262 257 256 255 256 258 260 262
32 47 83 30 28 358 352 116 132 121 163 169 92 79 57 73 128 150 151 132 123 119 126 134 127 123 117 129 143 121 124 123 123 124 127 130 130 131 127 126 127 121 119 117 112 105 98 92 84 77 73 71 65 56 42 26 10 355 349 344 340 333 329 332 334 331 325 320 312 303 298 296 294 291 289 288 288 283 275 269 264 264 265 261 257 258 264 270 272 269 265 260 258 257 256 257 259
30 25 58 46 67 322 314 72 120 97 338 83 92 110 123 121 171 153 152 138 126 126 136 140 138 136 134 148 140 121 119 121 125 126 129 131 129 128 123 124 126 122 122 118 112 110 107 99 88 81 70 67 54 34 11 359 349 343 345 342 340 335 329 326 323 321 320 319 313 308 304 301 299 298 293 293 296 293 282 273 269 267 265 263 261 259 259 263 271 277 277 268 261 259 260 260 260
35 47 4 358 85 281 307 343 103 103 101 93 96 109 136 155 177 156 155 145 130 132 143 145 145 140 137 140 131 123 121 121 121 120 125 129 128 128 125 125 125 124 122 116 115 115 111 96 84 69 42 30 14 359 345 346 343 342 339 333 337 335 333 328 318 313 311 311 306 301 297 294 296 297 293 289 291 297 294 285 279 275 270 266 265 264 261 260 265 273 282 278 266 259 260 262 263
6 82 78 331 61 326 315 345 63 112 120 67 99 126 141 151 166 155 155 148 133 135 144 145 143 139 135 134 132 128 126 119 116 118 124 127 129 129 127 127 124 122 114 102 97 80 70 63 64 42 16 359 346 336 327 334 338 341 341 336 336 333 334 336 331 325 321 323 319 307 297 291 286 286 289 283 277 284 294 296 293 288 283 274 267 265 264 263 264 267 270 275 271 261 258 260 265
327 46 85 314 58 37 334 340 357 80 99 86 106 126 142 148 154 154 162 151 136 138 144 144 144 144 142 140 140 139 135 134 132 129 129 130 130 130 126 121 118 113 98 72 50 42 24 17 25 15 5 354 343 333 325 327 329 328 327 326 327 323 323 325 326 327 327 333 335 330 322 309 294 284 278 272 268 274 281 289 295 296 293 288 280 270 266 266 267 269 267 266 267 266 264 262 265
229 227 110 305 37 49 349 323 339 63 97 110 112 119 131 140 151 155 162 152 138 142 144 146 150 141 142 148 146 147 145 145 152 143 137 135 130 128 126 121 118 111 96 52 18 6 352 351 355 349 345 346 343 334 324 317 317 317 314 313 314 313 313 315 320 323 322 325 328 329 328 328 322 300 281 273 272 275 277 280 285 292 294 290 287 282 276 271 269 271 270 266 265 267 269 269 270
177 190 130 151 127 13 292 279 297 79 97 124 130 132 139 144 154 153 157 154 139 142 144 149 153 140 151 165 155 153 153 151 154 148 141 138 132 127 123 119 111 85 55 21 15 1 351 353 353 345 338 342 345 344 338 328 328 332 334 333 331 329 326 323 324 326 325 326 329 328 323 324 330 321 303 294 290 287 288 286 282 285 288 285 283 284 281 276 275 276 275 273 269 267 267 268 270
139 126 110 141 144 224 273 328 305 80 100 159 148 142 153 152 154 155 155 151 143 148 155 162 162 159 170 175 165 160 155 150 152 149 146 144 139 132 121 100 56 24 3 341 336 346 355 356 357 355 343 338 344 353 0 359 355 351 349 350 346 343 341 338 337 337 335 331 331 332 334 338 339 333 317 303 300 300 301 300 294 290 286 285 288 291 287 279 277 277 277 278 274 269 267 266 267
116 117 114 132 156 223 264 315 308 44 92 164 152 142 155 153 149 157 154 152 166 167 162 170 171 170 175 173 168 162 150 144 149 150 150 150 145 137 125 103 50 342 324 310 299 301 330 343 359 4 351 346 349 357 6 9 5 357 349 347 344 342 344 347 345 343 341 336 333 333 337 346 351 352 340 314 305 306 308 307 304 301 295 291 293 298 295 285 279 274 274 278 277 275 270 267 266
98 107 119 154 206 285 311 297 336 33 88 143 163 147 159 167 157 163 168 168 181 177 167 171 173 175 178 173 168 161 154 154 157 155 152 153 154 154 163 179 187 192 197 233 288 293 293 308 338 348 354 1 358 358 3 2 360 356 347 343 342 342 343 344 339 336 337 335 336 337 336 341 348 355 357 346 325 315 313 311 308 306 304 299 294 294 291 286 285 281 276 275 275 276 275 270 263
97 118 122 175 235 121 293 294 2 27 92 135 153 135 148 176 165 169 183 182 181 178 172 173 177 182 178 170 166 161 160 161 160 157 150 151 157 164 170 179 188 190 192 209 266 290 293 291 309 328 340 348 349 354 357 354 352 350 345 341 341 341 342 342 338 336 338 337 335 333 336 340 342 348 352 353 342 327 320 316 315 312 307 303 296 294 293 290 290 291 286 276 270 270 273 272 266
116 148 146 164 214 175 188 261 0 21 2 124 126 82 107 174 172 184 200 197 178 172 173 175 183 184 166 158 163 165 164 162 159 159 158 155 157 165 170 174 184 196 204 215 237 264 288 290 303 325 331 333 338 347 353 354 353 350 348 348 349 352 354 355 352 350 350 347 339 332 333 335 332 333 339 348 345 333 326 323 323 321 313 302 294 294 298 297 292 292 291 282 273 266 268 275 275
165 210 196 187 200 189 188 232 39 37 315 229 114 88 292 216 174 188 199 198 179 171 179 182 181 170 157 158 165 168 169 167 162 160 162 160 158 162 169 173 181 195 207 211 223 239 271 298 319 333 336 336 337 344 353 353 350 351 355 358 4 8 5 3 0 356 357 358 352 338 329 329 329 323 320 325 322 322 328 328 326 326 318 304 296 295 296 296 292 291 290 284 279 270 264 272 276
220 236 191 188 199 192 190 180 136 125 246 257 107 128 245 309 213 197 189 190 187 177 183 187 178 167 164 167 167 169 174 171 161 157 159 162 162 163 168 178 187 199 208 209 216 226 247 298 333 333 333 337 337 344 351 348 344 348 357 3 13 16 6 3 4 2 3 5 6 358 344 336 342 336 322 319 319 324 328 324 320 322 323 315 306 302 296 292 288 286 284 280 281 274 260 260 268
233 242 163 170 221 225 199 172 167 198 194 336 21 103 130 286 258 223 183 177 180 181 187 189 180 174 170 168 168 170 173 168 159 158 162 164 165 168 173 181 191 200 204 209 217 220 227 280 332 325 326 333 336 340 337 337 340 343 355 3 12 19 8 2 4 7 10 11 14 18 16 13 21 21 1 343 343 343 331 319 317 317 319 317 308 301 297 292 288 285 282 280 280 275 261 254 258
242 243 159 126 283 253 178 155 170 202 98 353 315 76 103 258 274 272 172 160 172 186 192 187 182 179 172 166 166 168 168 167 164 163 167 167 167 173 179 181 186 194 200 209 220 221 224 286 329 321 330 330 333 339 329 327 339 342 357 8 14 18 11 7 9 11 14 15 18 24 28 32 38 43 36 12 353 345 336 327 323 319 321 320 307 301 300 294 289 289 288 287 283 273 265 258 255
256 269 52 44 17 26 100 123 133 51 73 216 260 101 111 264 284 300 159 165 178 189 194 188 183 179 171 163 162 165 168 168 167 165 164 166 168 172 178 180 182 189 194 201 213 216 233 309 320 323 334 323 326 343 336 323 339 348 5 16 17 16 13 14 16 17 18 19 21 25 29 35 38 40 42 38 12 344 337 334 329 327 332 332 319 305 297 289 287 291 297 298 290 277 271 267 262
302 26 39 32 16 26 45 68 90 63 30 249 249 202 130 270 280 235 198 204 172 167 188 189 180 174 169 164 163 167 170 166 166 163 159 162 165 167 174 181 185 187 184 188 202 204 236 300 311 320 326 318 329 343 333 321 348 0 20 23 19 18 16 16 15 15 19 20 22 22 23 28 31 34 41 44 33 15 4 352 344 337 336 342 342 332 320 311 306 308 313 310 301 289 280 275 267
51 50 51 39 353 7 20 359 40 73 268 263 250 181 120 142 264 237 234 242 168 155 176 184 175 172 168 165 168 168 168 165 162 158 153 154 157 162 175 186 189 188 181 178 190 194 229 298 312 314 316 317 336 337 323 334 354 3 25 31 28 24 20 19 16 13 17 18 16 16 19 24 28 34 43 39 29 23 24 22 13 5 3 11 12 9 4 355 344 335 329 324 317 304 291 280 270
48 45 56 68 359 3 14 333 357 135 245 255 226 143 105 226 245 237 233 247 191 162 171 175 171 169 165 166 170 167 167 165 161 158 153 157 160 167 182 189 190 191 185 176 184 195 239 296 310 311 316 317 333 337 328 335 353 7 31 37 35 29 23 21 18 17 19 17 13 15 18 21 23 29 33 28 24 26 35 39 38 38 38 34 31 33 34 28 21 13 2 353 344 332 313 295 284
15 1 106 108 94 53 330 280 325 279 269 278 249 182 301 284 270 245 223 224 204 166 165 172 171 168 165 167 167 167 170 167 162 159 157 167 172 174 183 187 189 192 186 176 186 212 239 272 299 307 318 312 328 343 333 323 349 18 33 32 30 28 23 19 19 20 22 19 19 22 24 24 25 27 28 28 31 41 49 52 51 51 51 49 47 48 47 44 39 33 25 19 14 11 360 332 310
316 189 130 128 144 136 204 227 195 235 272 303 297 158 184 219 260 254 225 207 186 149 153 163 164 163 161 161 163 165 170 166 162 162 166 178 178 176 181 183 185 188 183 180 193 219 228 246 279 301 317 310 334 351 342 336 29 45 34 27 27 27 21 18 23 26 26 25 25 28 33 36 35 31 32 40 52 62 64 63 61 60 60 60 58 53 51 51 48 43 37 32 30 30 27 8 342
296 111 91 114 180 148 160 191 177 183 281 311 285 214 211 205 263 288 355 104 100 110 130 134 136 150 151 154 163 167 168 167 167 168 174 181 179 178 178 178 180 182 180 184 192 203 211 219 237 306 327 327 347 0 23 78 84 82 48 33 27 26 25 26 31 34 33 32 32 38 47 49 48 48 51 56 63 68 68 68 66 62 61 59 56 51 50 52 51 50 46 41 39 36 32 26 15
312 42 96 233 167 123 111 282 315 82 81 279 261 257 290 332 309 318 30 80 89 100 125 134 136 145 151 158 166 169 171 171 170 174 179 180 179 179 177 176 178 179 181 187 189 194 200 198 189 208 341 346 350 1 97 78 52 40 38 46 39 33 36 37 39 40 39 40 46 58 67 71 71 69 68 66 65 66 65 64 60 55 53 49 48 48 49 49 49 51 51 47 44 42 40 39 35
108 95 214 213 60 75 104 96 358 41 90 276 288 252 283 15 291 318 25 93 127 124 134 141 144 148 156 167 170 171 173 171 173 178 180 178 178 178 177 178 180 180 183 186 186 190 193 190 187 181 152 19 353 187 144 39 359 349 19 73 65 54 50 50 50 49 51 60 68 76 82 82 82 78 74 67 62 61 58 55 53 49 45 42 44 49 50 50 50 52 52 50 48 47 47 46 44
130 172 183 101 86 345 29 112 327 24 236 281 308 287 247 177 218 275 317 160 164 160 149 148 159 163 163 169 170 170 170 170 176 179 178 178 179 179 178 181 182 181 182 183 184 187 187 186 189 176 149 77 47 163 141 26 354 0 49 78 78 77 69 60 60 63 70 79 80 81 81 78 76 68 63 59 53 50 48 48 50 49 48 47 48 52 56 57 57 58 57 53 52 52 52 55 56
54 75 14 44 138 168 180 173 162 152 201 256 312 329 265 227 218 194 206 197 169 167 170 168 176 175 167 168 168 170 173 175 178 178 177 179 181 181 181 182 182 179 179 180 181 183 180 182 182 167 155 139 100 141 133 43 19 22 69 82 83 88 78 67 72 78 83 85 80 75 71 66 62 55 53 52 47 44 44 47 51 51 52 53 52 54 63 68 64 62 60 57 58 58 59 63 64
80 72 336 354 43 121 123 284 158 134 144 185 235 310 272 256 217 181 201 199 171 172 179 185 190 180 170 170 169 171 176 177 177 177 177 180 181 182 183 183 180 176 176 178 179 176 166 167 169 160 160 157 108 131 149 86 56 58 86 94 91 90 78 73 85 92 92 87 76 72 72 70 66 60 56 53 49 50 51 53 56 55 55 54 54 56 63 69 68 65 64 62 63 66 67 68 66
155 160 196 170 135 122 105 303 286 119 133 165 166 249 265 261 228 198 200 188 180 180 178 185 195 185 176 178 175 175 176 177 179 177 175 178 179 180 181 180 176 171 172 174 173 166 158 159 162 158 158 150 116 132 149 110 84 89 98 103 101 88 72 79 97 101 98 90 79 77 75 72 70 67 63 59 57 56 57 58 59 58 57 55 56 59 63 67 67 67 66 65 68 73 73 71 66